User: anonymous   Login
Location: Fort Wayne
(41.1310°N, 85.1290°W)
Time: 20:10:56
(UTC-04:00)
Language:

MetOp-A - Orbit

View from above orbital plane
View from above orbital plane
View from above satellite
View from above satellite

Ground track
Ground track

The orbit data is extracted from the following two-line orbital elements,

1 29499U 06044A   16210.77683873  .00000041  00000-0  18900-4 0  9993
2 29499  98.6918 269.1195 0001996  47.9455 312.2365 14.21498908508098
Epoch (UTC): 28 July 2016 18:38:38
Eccentricity: 0.0001996
inclination: 98.6918°
perigee height: 819 km
apogee height: 822 km
right ascension of ascending node: 269.1195°
argument of perigee: 47.9455°
revolutions per day: 14.21498908
mean anomaly at epoch: 312.2365°
orbit number at epoch: 50809

The dashed part of the orbit path shows where the satellite is in the earth's shadow,  

DLR